TimeMDT,TemperatureF,Dew PointF,Humidity,Sea Level PressureIn,VisibilityMPH,Wind Direction,Wind SpeedMPH,Gust SpeedMPH,PrecipitationIn,Events,Conditions,WindDirDegrees,DateUTC
1:53 AM,46.9,37.0,68,30.04,10.0,Calm,Calm,-,N/A,,Clear,0,2013-06-29 07:53:00
2:53 AM,46.9,37.0,68,30.05,10.0,NE,3.5,-,N/A,,Clear,50,2013-06-29 08:53:00
3:53 AM,45.0,37.0,74,30.03,10.0,NE,4.6,-,N/A,,Clear,40,2013-06-29 09:53:00
4:53 AM,44.1,36.0,73,30.04,10.0,NE,5.8,-,N/A,,Clear,50,2013-06-29 10:53:00
5:53 AM,46.9,37.0,68,30.03,10.0,East,5.8,-,N/A,,Clear,80,2013-06-29 11:53:00
6:53 AM,46.9,37.9,71,30.04,10.0,Calm,Calm,-,N/A,,Clear,0,2013-06-29 12:53:00
7:53 AM,55.0,39.0,55,30.01,10.0,North,3.5,-,N/A,,Scattered Clouds,360,2013-06-29 13:53:00
8:53 AM,55.0,39.9,57,30.05,10.0,Calm,Calm,-,0.00,,Overcast,0,2013-06-29 14:53:00
9:53 AM,68.0,32.0,26,29.96,10.0,Variable,4.6,-,0.00,,Clear,0,2013-06-29 15:53:00
10:53 AM,69.1,32.0,25,29.96,10.0,Variable,6.9,19.6,N/A,,Scattered Clouds,0,2013-06-29 16:53:00
11:53 AM,73.0,33.1,23,29.96,10.0,Variable,6.9,-,N/A,,Mostly Cloudy,0,2013-06-29 17:53:00
12:53 PM,73.0,30.0,20,29.95,10.0,NNW,11.5,24.2,N/A,,Mostly Cloudy,340,2013-06-29 18:53:00
1:07 PM,71.6,32.0,23,30.51,10.0,North,8.1,17.3,N/A,Thunderstorm,Thunderstorm,360,2013-06-29 19:07:00
1:32 PM,71.6,30.2,22,30.51,10.0,NNW,12.7,21.9,N/A,,Overcast,330,2013-06-29 19:32:00
1:53 PM,70.0,33.1,26,29.97,10.0,WNW,16.1,-,N/A,,Scattered Clouds,290,2013-06-29 19:53:00
2:27 PM,75.2,28.4,18,30.50,10.0,NW,12.7,21.9,N/A,Thunderstorm,Clear,310,2013-06-29 20:27:00
2:43 PM,75.2,26.6,17,30.49,10.0,North,13.8,23.0,N/A,,Clear,10,2013-06-29 20:43:00
2:53 PM,73.9,25.0,16,29.93,10.0,WNW,11.5,20.7,N/A,,Clear,290,2013-06-29 20:53:00
3:42 PM,68.0,35.6,30,30.51,8.0,NE,11.5,29.9,N/A,,Mostly Cloudy,50,2013-06-29 21:42:00
3:53 PM,66.0,35.1,32,30.01,5.0,East,9.2,29.9,N/A,,Haze,80,2013-06-29 21:53:00
4:53 PM,63.0,37.0,38,30.05,9.0,South,18.4,-,N/A,,Overcast,180,2013-06-29 22:53:00
5:53 PM,55.9,46.9,72,30.12,8.0,South,10.4,16.1,0.06,Rain,Light Rain,190,2013-06-29 23:53:00
6:53 PM,54.0,44.1,69,30.09,10.0,South,15.0,-,0.00,,Partly Cloudy,180,2013-06-30 00:53:00
7:53 PM,55.0,43.0,64,30.04,10.0,SE,4.6,-,N/A,,Clear,130,2013-06-30 01:53:00
8:53 PM,52.0,45.0,77,30.05,10.0,NNE,5.8,-,N/A,,Clear,30,2013-06-30 02:53:00
9:53 PM,48.0,44.1,86,30.01,10.0,North,3.5,-,N/A,,Clear,360,2013-06-30 03:53:00
10:53 PM,46.9,42.1,83,30.01,10.0,ENE,4.6,-,N/A,,Clear,60,2013-06-30 04:53:00
11:53 PM,44.1,41.0,89,30.02,10.0,ENE,3.5,-,N/A,,Partly Cloudy,60,2013-06-30 05:53:00